Salten — LMFM — position and weather

sailwx.info

Track history (hours):
 
Tides and Currents Weather Stations Pressure Air Temp Water Temp Dewpoint Dewpoint Depression Visibility Wind Speed Wind Dir Waves Ship Positions

Salten

Last reported at 2014-Aug-29 14:33 UTC. Time now 2014-Aug-30 02:26 UTC.
Position N 67°08' E 013°58'.

Length 41 m; draft 1.5 m.

Type: High speed craft. MMSI: 259387000.

Date/timePositionNaut miles runAvg speedWind from/ knotsBaromVisibWave heightAir tempDewpointWater temp
2014-Aug-29 14:33N 67°08' E 013°58'1313.2
2014-Aug-29 13:33N 67°17' E 014°22'0 0.0
2014-Aug-29 12:33N 67°17' E 014°22'0 0.0
2014-Aug-29 11:32N 67°17' E 014°22'0 0.0
2014-Aug-29 10:33N 67°17' E 014°22'1312.9
2014-Aug-29 09:33N 67°08' E 013°58'12 0.6
2014-Aug-28 15:07N 66°60' E 013°38'1220.7
2014-Aug-28 14:31N 67°07' E 014°03'1212.7
2014-Aug-28 13:33N 67°17' E 014°22'0 0.0
2014-Aug-28 12:33N 67°17' E 014°22'0 0.0
2014-Aug-28 11:33N 67°17' E 014°22'0 0.0
2014-Aug-28 10:33N 67°17' E 014°22'86 7.5
2014-Aug-27 23:06N 66°01' E 012°38'72 8.4
2014-Aug-27 14:32N 67°06' E 013°58'1414.5
2014-Aug-27 13:33N 67°17' E 014°22'0 0.0
2014-Aug-27 12:33N 67°17' E 014°22'0 0.0
2014-Aug-27 11:33N 67°17' E 014°22'0 0.0
2014-Aug-27 10:33N 67°17' E 014°22'0 0.0
2014-Aug-27 09:33N 67°17' E 014°22'0 0.0
2014-Aug-27 08:33N 67°17' E 014°22'7 0.4
2014-Aug-26 15:33N 67°23' E 014°30'7 6.8
2014-Aug-26 14:33N 67°17' E 014°22'0 0.0
2014-Aug-26 13:33N 67°17' E 014°22'0 0.0
2014-Aug-26 12:33N 67°17' E 014°22'0 0.0
2014-Aug-26 11:33N 67°17' E 014°22'0 0.1
2014-Aug-26 10:33N 67°17' E 014°23'1312.0
2014-Aug-26 09:28N 67°08' E 013°58'0 0.0
2014-Aug-25 14:31N 67°08' E 013°58'1313.7
2014-Aug-25 13:33N 67°17' E 014°22'0 0.0
2014-Aug-25 12:33N 67°17' E 014°22'0 0.0
2014-Aug-25 11:33N 67°17' E 014°22'0 0.0
2014-Aug-25 10:33N 67°17' E 014°22'7 7.0
2014-Aug-25 09:31N 67°12' E 014°09'6 0.3
2014-Aug-24 11:32N 67°08' E 013°58'1313.2
2014-Aug-24 10:33N 67°17' E 014°22'0 0.0
2014-Aug-24 09:33N 67°17' E 014°22'0 0.0
2014-Aug-24 08:33N 67°17' E 014°22'0 0.0
2014-Aug-24 07:33N 67°17' E 014°22'0 0.0
2014-Aug-24 06:33N 67°17' E 014°22'0 0.0
2014-Aug-24 05:33N 67°17' E 014°22'0 0.0
2014-Aug-24 04:33N 67°17' E 014°22'0 0.0
2014-Aug-24 03:33N 67°17' E 014°22'0 0.0
2014-Aug-24 02:33N 67°17' E 014°22'0 0.0
2014-Aug-24 01:33N 67°17' E 014°22'0 0.0
2014-Aug-24 00:33N 67°17' E 014°22'0 0.0
2014-Aug-23 23:33N 67°17' E 014°22'0 0.0
2014-Aug-23 22:33N 67°17' E 014°22'0 0.0
2014-Aug-23 21:33N 67°17' E 014°22'0 0.0
2014-Aug-23 20:33N 67°17' E 014°22'0 0.0
2014-Aug-23 19:33N 67°17' E 014°22'15 0.5
2014-Aug-22 16:33N 67°30' E 014°38'1514.6
2014-Aug-22 15:33N 67°17' E 014°22'2114.3
2014-Aug-22 14:04N 67°37' E 014°39'1428.6
2014-Aug-22 13:34N 67°24' E 014°26'7 6.7
2014-Aug-22 12:34N 67°17' E 014°23'0 0.4
2014-Aug-22 11:34N 67°17' E 014°22'0 0.0
2014-Aug-22 10:34N 67°17' E 014°22'0 0.0
2014-Aug-22 09:33N 67°17' E 014°22'0 0.0
2014-Aug-22 08:33N 67°17' E 014°22'9 8.5
2014-Aug-22 07:33N 67°25' E 014°28'3 0.2
2014-Aug-21 15:33N 67°23' E 014°29'6 6.2
2014-Aug-21 14:33N 67°17' E 014°22'0 0.0
2014-Aug-21 13:33N 67°17' E 014°22'0 0.0
2014-Aug-21 12:33N 67°17' E 014°22'0 0.0
2014-Aug-21 11:33N 67°17' E 014°22'0 0.0
2014-Aug-21 10:33N 67°17' E 014°22'1110.0
2014-Aug-21 09:27N 67°09' E 014°03'1 0.1
2014-Aug-20 14:23N 67°10' E 014°03'1012.3
2014-Aug-20 13:33N 67°17' E 014°22'0 0.1
2014-Aug-20 12:33N 67°17' E 014°22'0 0.0
2014-Aug-20 11:33N 67°17' E 014°22'0 0.0
2014-Aug-20 10:33N 67°17' E 014°22'0 0.0
2014-Aug-20 09:33N 67°17' E 014°22'0 0.0
2014-Aug-20 08:33N 67°17' E 014°22'8 8.1
2014-Aug-20 07:33N 67°25' E 014°27'2 0.1
2014-Aug-19 15:33N 67°23' E 014°26'  
Track history (hours):
 
Tides and Currents Weather Stations Pressure Air Temp Water Temp Dewpoint Dewpoint Depression Visibility Wind Speed Wind Dir Waves Ship Positions

Salten

Last reported at 2014-Aug-29 14:33 UTC. Time now 2014-Aug-30 02:26 UTC.
Position N 67°08' E 013°58'.

Length 41 m; draft 1.5 m.

Type: High speed craft. MMSI: 259387000.

Date/timePositionNaut miles runAvg speedWind from/ knotsBaromVisibWave heightAir tempDewpointWater temp
2014-Aug-29 14:33N 67°08' E 013°58'1313.2
2014-Aug-29 13:33N 67°17' E 014°22'0 0.0
2014-Aug-29 12:33N 67°17' E 014°22'0 0.0
2014-Aug-29 11:32N 67°17' E 014°22'0 0.0
2014-Aug-29 10:33N 67°17' E 014°22'1312.9
2014-Aug-29 09:33N 67°08' E 013°58'12 0.6
2014-Aug-28 15:07N 66°60' E 013°38'1220.7
2014-Aug-28 14:31N 67°07' E 014°03'1212.7
2014-Aug-28 13:33N 67°17' E 014°22'0 0.0
2014-Aug-28 12:33N 67°17' E 014°22'0 0.0
2014-Aug-28 11:33N 67°17' E 014°22'0 0.0
2014-Aug-28 10:33N 67°17' E 014°22'86 7.5
2014-Aug-27 23:06N 66°01' E 012°38'72 8.4
2014-Aug-27 14:32N 67°06' E 013°58'1414.5
2014-Aug-27 13:33N 67°17' E 014°22'0 0.0
2014-Aug-27 12:33N 67°17' E 014°22'0 0.0
2014-Aug-27 11:33N 67°17' E 014°22'0 0.0
2014-Aug-27 10:33N 67°17' E 014°22'0 0.0
2014-Aug-27 09:33N 67°17' E 014°22'0 0.0
2014-Aug-27 08:33N 67°17' E 014°22'7 0.4
2014-Aug-26 15:33N 67°23' E 014°30'7 6.8
2014-Aug-26 14:33N 67°17' E 014°22'0 0.0
2014-Aug-26 13:33N 67°17' E 014°22'0 0.0
2014-Aug-26 12:33N 67°17' E 014°22'0 0.0
2014-Aug-26 11:33N 67°17' E 014°22'0 0.1
2014-Aug-26 10:33N 67°17' E 014°23'1312.0
2014-Aug-26 09:28N 67°08' E 013°58'0 0.0
2014-Aug-25 14:31N 67°08' E 013°58'1313.7
2014-Aug-25 13:33N 67°17' E 014°22'0 0.0
2014-Aug-25 12:33N 67°17' E 014°22'0 0.0
2014-Aug-25 11:33N 67°17' E 014°22'0 0.0
2014-Aug-25 10:33N 67°17' E 014°22'7 7.0
2014-Aug-25 09:31N 67°12' E 014°09'6 0.3
2014-Aug-24 11:32N 67°08' E 013°58'1313.2
2014-Aug-24 10:33N 67°17' E 014°22'0 0.0
2014-Aug-24 09:33N 67°17' E 014°22'0 0.0
2014-Aug-24 08:33N 67°17' E 014°22'0 0.0
2014-Aug-24 07:33N 67°17' E 014°22'0 0.0
2014-Aug-24 06:33N 67°17' E 014°22'0 0.0
2014-Aug-24 05:33N 67°17' E 014°22'0 0.0
2014-Aug-24 04:33N 67°17' E 014°22'0 0.0
2014-Aug-24 03:33N 67°17' E 014°22'0 0.0
2014-Aug-24 02:33N 67°17' E 014°22'0 0.0
2014-Aug-24 01:33N 67°17' E 014°22'0 0.0
2014-Aug-24 00:33N 67°17' E 014°22'0 0.0
2014-Aug-23 23:33N 67°17' E 014°22'0 0.0
2014-Aug-23 22:33N 67°17' E 014°22'0 0.0
2014-Aug-23 21:33N 67°17' E 014°22'0 0.0
2014-Aug-23 20:33N 67°17' E 014°22'0 0.0
2014-Aug-23 19:33N 67°17' E 014°22'15 0.5
2014-Aug-22 16:33N 67°30' E 014°38'1514.6
2014-Aug-22 15:33N 67°17' E 014°22'2114.3
2014-Aug-22 14:04N 67°37' E 014°39'1428.6
2014-Aug-22 13:34N 67°24' E 014°26'7 6.7
2014-Aug-22 12:34N 67°17' E 014°23'0 0.4
2014-Aug-22 11:34N 67°17' E 014°22'0 0.0
2014-Aug-22 10:34N 67°17' E 014°22'0 0.0
2014-Aug-22 09:33N 67°17' E 014°22'0 0.0
2014-Aug-22 08:33N 67°17' E 014°22'9 8.5
2014-Aug-22 07:33N 67°25' E 014°28'3 0.2
2014-Aug-21 15:33N 67°23' E 014°29'6 6.2
2014-Aug-21 14:33N 67°17' E 014°22'0 0.0
2014-Aug-21 13:33N 67°17' E 014°22'0 0.0
2014-Aug-21 12:33N 67°17' E 014°22'0 0.0
2014-Aug-21 11:33N 67°17' E 014°22'0 0.0
2014-Aug-21 10:33N 67°17' E 014°22'1110.0
2014-Aug-21 09:27N 67°09' E 014°03'1 0.1
2014-Aug-20 14:23N 67°10' E 014°03'1012.3
2014-Aug-20 13:33N 67°17' E 014°22'0 0.1
2014-Aug-20 12:33N 67°17' E 014°22'0 0.0
2014-Aug-20 11:33N 67°17' E 014°22'0 0.0
2014-Aug-20 10:33N 67°17' E 014°22'0 0.0
2014-Aug-20 09:33N 67°17' E 014°22'0 0.0
2014-Aug-20 08:33N 67°17' E 014°22'8 8.1
2014-Aug-20 07:33N 67°25' E 014°27'2 0.1
2014-Aug-19 15:33N 67°23' E 014°26'  

Dump ship's entire track history